LRTZ Weather Reports


time (UTC)temp
C
wind
direction
speed
KPH
gust
KPH
rain 1hr
cm
rain 24hr
cm
rain mn
cm
humidity
%
barometer
mb
20260506180403 -17 0.0 0.0 0.00 0.00 0.00
20260506174903 12 140 14.5 0.0 0.00 0.00 0.00 88 1016.0
20260506173402 12 140 14.5 0.0 0.00 0.00 0.00 88 1016.0
20260506171903 12 140 14.5 0.0 0.00 0.00 0.00 88 1016.0
20260506170402 12 140 14.5 0.0 0.00 0.00 0.00 88 1016.0
20260506164902 13 160 14.5 0.0 0.00 0.00 0.00 77 1016.0
20260506163402 13 160 14.5 0.0 0.00 0.00 0.00 77 1016.0
20260506161903 13 160 14.5 0.0 0.00 0.00 0.00 77 1016.0
20260506160402 13 160 14.5 0.0 0.00 0.00 0.00 77 1016.0
20260506154903 15 140 17.7 0.0 0.00 0.00 0.00 72 1016.0
20260506153402 15 140 17.7 0.0 0.00 0.00 0.00 72 1016.0
20260506151902 15 140 17.7 0.0 0.00 0.00 0.00 72 1016.0
20260506150408 15 140 17.7 0.0 0.00 0.00 0.00 72 1016.0
20260506144903 15 140 17.7 0.0 0.00 0.00 0.00 68 1016.0
20260506143414 15 140 17.7 0.0 0.00 0.00 0.00 68 1016.0
20260506141902 15 140 17.7 0.0 0.00 0.00 0.00 68 1016.0
20260506140526 -17 0.0 0.0 0.00 0.00 0.00
20260506134927 16 150 25.7 0.0 0.00 0.00 0.00 68 1017.0
20260506133402 16 150 25.7 0.0 0.00 0.00 0.00 68 1017.0
20260506131859 16 150 25.7 0.0 0.00 0.00 0.00 68 1017.0
20260506130411 16 150 25.7 0.0 0.00 0.00 0.00 68 1017.0
20260506124903 16 150 25.7 0.0 0.00 0.00 0.00 63 1017.0
20260506123402 16 150 25.7 0.0 0.00 0.00 0.00 63 1017.0
20260506121903 16 150 25.7 0.0 0.00 0.00 0.00 63 1017.0
20260506120402 16 150 25.7 0.0 0.00 0.00 0.00 63 1017.0
20260506114902 16 150 27.4 0.0 0.00 0.00 0.00 68 1017.0
20260506113403 16 150 27.4 0.0 0.00 0.00 0.00 68 1017.0
20260506111902 16 150 27.4 0.0 0.00 0.00 0.00 68 1017.0
20260506110402 16 150 27.4 0.0 0.00 0.00 0.00 68 1017.0
20260506104903 16 160 22.5 0.0 0.00 0.00 0.00 68 1017.0
20260506103403 16 160 22.5 0.0 0.00 0.00 0.00 68 1017.0
20260506101903 16 160 22.5 0.0 0.00 0.00 0.00 68 1017.0
20260506100403 16 160 22.5 0.0 0.00 0.00 0.00 68 1017.0
20260506094903 16 180 25.7 0.0 0.00 0.00 0.00 72 1017.0
20260506093402 16 180 25.7 0.0 0.00 0.00 0.00 72 1017.0
20260506091903 16 180 25.7 0.0 0.00 0.00 0.00 72 1017.0
20260506090402 16 180 25.7 0.0 0.00 0.00 0.00 72 1017.0
20260506084903 15 140 22.5 0.0 0.00 0.00 0.00 72 1017.0
20260506083402 15 140 22.5 0.0 0.00 0.00 0.00 72 1017.0
20260506081859 15 140 22.5 0.0 0.00 0.00 0.00 72 1017.0
20260506080403 15 140 22.5 0.0 0.00 0.00 0.00 72 1017.0
20260506073403 15 140 17.7 0.0 0.00 0.00 0.00 63 1016.0
20260506071902 15 140 17.7 0.0 0.00 0.00 0.00 63 1016.0
20260506070402 15 140 17.7 0.0 0.00 0.00 0.00 63 1016.0
20260506061904 12 4.8 0.0 0.00 0.00 0.00 77 1016.0
20260506060404 12 4.8 0.0 0.00 0.00 0.00 77 1016.0
20260506050416 10 4.8 0.0 0.00 0.00 0.00 82 1016.0
20260506044918 7 4.8 0.0 0.00 0.00 0.00 71 1016.0
20260506043406 7 4.8 0.0 0.00 0.00 0.00 71 1016.0
20260506041903 7 4.8 0.0 0.00 0.00 0.00 71 1016.0
20260506040402 7 4.8 0.0 0.00 0.00 0.00 71 1016.0
20260506034903 7 4.8 0.0 0.00 0.00 0.00 76 1015.0
20260506033402 7 4.8 0.0 0.00 0.00 0.00 76 1015.0
20260506031902 7 4.8 0.0 0.00 0.00 0.00 76 1015.0
20260506030402 7 4.8 0.0 0.00 0.00 0.00 76 1015.0
20260506024902 5 4.8 0.0 0.00 0.00 0.00 93 1016.0
20260506023402 5 4.8 0.0 0.00 0.00 0.00 93 1016.0
20260506021900 -17 0.0 0.0 0.00 0.00 0.00
20260506020402 -17 0.0 0.0 0.00 0.00 0.00
20260506014902 5 4.8 0.0 0.00 0.00 0.00 93 1016.0
20260506013402 5 4.8 0.0 0.00 0.00 0.00 93 1016.0
20260506011903 5 4.8 0.0 0.00 0.00 0.00 93 1016.0
20260506010402 5 4.8 0.0 0.00 0.00 0.00 93 1016.0
20260506004900 5 4.8 0.0 0.00 0.00 0.00 93 1016.0
20260506003527 -17 0.0 0.0 0.00 0.00 0.00
20260506001903 5 4.8 0.0 0.00 0.00 0.00 100 1016.0
20260506000403 5 4.8 0.0 0.00 0.00 0.00 100 1016.0
20260505234903 -17 0.0 0.0 0.00 0.00 0.00
20260505233402 -17 0.0 0.0 0.00 0.00 0.00
20260505231902 -17 0.0 0.0 0.00 0.00 0.00
20260505230403 -17 0.0 0.0 0.00 0.00 0.00
20260505224903 6 4.8 0.0 0.00 0.00 0.00 100 1017.0
20260505223402 6 4.8 0.0 0.00 0.00 0.00 100 1017.0
20260505221900 6 4.8 0.0 0.00 0.00 0.00 100 1017.0
20260505220403 6 4.8 0.0 0.00 0.00 0.00 100 1017.0
20260505214903 6 4.8 0.0 0.00 0.00 0.00 100 1017.0
20260505213403 6 4.8 0.0 0.00 0.00 0.00 100 1017.0
20260505211902 6 4.8 0.0 0.00 0.00 0.00 100 1017.0
20260505210403 6 4.8 0.0 0.00 0.00 0.00 100 1017.0
20260505204904 6 4.8 0.0 0.00 0.00 0.00 100 1017.0
20260505203402 7 4.8 0.0 0.00 0.00 0.00 93 1016.0
20260505201933 7 4.8 0.0 0.00 0.00 0.00 93 1016.0
20260505200403 7 4.8 0.0 0.00 0.00 0.00 93 1016.0
20260505194902 8 4.8 0.0 0.00 0.00 0.00 94 1016.0
20260505193402 8 4.8 0.0 0.00 0.00 0.00 94 1016.0
20260505191903 8 4.8 0.0 0.00 0.00 0.00 94 1016.0
20260505190402 8 4.8 0.0 0.00 0.00 0.00 94 1016.0
20260505184903 8 4.8 0.0 0.00 0.00 0.00 94 1016.0
20260505183403 8 4.8 0.0 0.00 0.00 0.00 94 1016.0
20260505181900 8 4.8 0.0 0.00 0.00 0.00 94 1016.0